Regional Weather Roundup
Issued by NWS

Home | Current Version | Previous Version | Text Only | Print | Product List | Glossary On
Versions: 1 2 3 4 5 6 7 8 9 10 11 12 13 14 15 16 17 18 19 20 21 22 23 24 25 26 27 28 29 30 31 32 33 34 35 36 37 38 39 40 41 42 43 44 45 46 47 48 49 50
000
ASUS46 KSEW 221110
RWRWA

WASHINGTON REGIONAL WEATHER ROUNDUP
NATIONAL WEATHER SERVICE SEATTLE WA
400 AM PDT FRI MAY 22 2015

NOTE:"FAIR" INDICATES FEW OR NO CLOUDS BELOW 12,000 FEET WITH NO
SIGNIFICANT WEATHER AND/OR OBSTRUCTIONS TO VISIBILITY.

WAZ505-507>509-221200-
SEATTLE, TACOMA, EVERETT, AND VICINITY

CITY           SKY/WX    TMP DP  RH WIND       PRES   REMARKS
EVERETT        MOCLDY    53  50  89 VRB3      29.93R
BOEING FIELD   CLOUDY    57  50  77 SE9       29.93R
RENTON         CLOUDY    56  50  80 S6        29.92R
SEATAC AIRPORT CLOUDY    54  50  86 SW8       29.93R
JBLM-MCCHORD   CLOUDY    54  52  94 SW7       29.93R
PUYALLUP       MOCLDY    54  52  94 SW5       29.94R
BREMERTON      CLOUDY    52  50  93 S6        29.95R
JBLM-FT LEWIS  CLOUDY    53  52  95 S8        29.93R
TACOMA NARROWS CLOUDY    53  49  86 SW8       29.94R
$$

WAZ001-503-506-510-514-515-221200-
NORTH INTERIOR

CITY           SKY/WX    TMP DP  RH WIND       PRES   REMARKS
BELLINGHAM     PTCLDY    56  50  80 S9G17     29.88R
FRIDAY HARBOR  PTCLDY    45  44  97 CALM      29.90R
EASTSOUND      PTCLDY    54  48  82 S3        29.86R
PORT ANGELES   CLOUDY    51  48  89 W8        29.94R
PORT TOWNSEND  CLOUDY    52  52 100 CALM      29.92R
NAS WHIDBEY    FOG       52  50  93 SW10      29.96R VSB 1
ARLINGTON      CLOUDY    52  46  82 NW5       29.93R
BURLINGTON     CLOUDY    50  50 100 S5        29.92R
$$

WAZ020-022-039-040-504-511-512-221200-
SOUTHWEST INTERIOR

CITY           SKY/WX    TMP DP  RH WIND       PRES   REMARKS
SHELTON        CLOUDY    51  49  92 SW14      29.91R
OLYMPIA        CLOUDY    53  49  86 S8        29.94R
CHEHALIS       CLOUDY    54  52  94 SW5       29.95R
KELSO          CLOUDY    54  48  82 NW5       30.01R
VANCOUVER      CLOUDY    56  48  74 NW6       29.96R
SCAPPOOSE, OR  PTCLDY    54  48  80 NW6       29.96R
PORTLAND, OR   CLOUDY    56  50  80 N7        29.97R
$$

WAZ021-516-517-221200-
WASHINGTON COAST

CITY           SKY/WX    TMP DP  RH WIND       PRES   REMARKS
FORKS          CLOUDY    51  51 100 CALM      29.96S FOG
HOQUIAM        CLOUDY    52  51  97 W10       29.96R FOG
ASTORIA, OR    CLOUDY    52  50  93 W8        29.98R FOG
$$

WAZ019-023-024-040-518-519-221200-
CASCADE MOUNTAINS AND COLUMBIA GORGE

CITY           SKY/WX    TMP DP  RH WIND       PRES   REMARKS
TROUTDALE, OR  CLOUDY    56  50  80 CALM      29.95R
THE DALLES, OR MOCLDY    64  53  67 MISG      29.83R
$$

WAZ026-027-041>044-520-521-221200-
EAST SLOPES

CITY           SKY/WX    TMP DP  RH WIND       PRES   REMARKS
OMAK           MOCLDY    64  43  46 NW8       29.80S
WENATCHEE      MOCLDY    62  49  62 W6        29.82R
ELLENSBURG     PTCLDY    63  51  65 NW12      29.84R
YAKIMA         PTCLDY    61  52  72 NW5       29.82S
$$

WAZ028-034-035-221200-
COLUMBIA BASIN

CITY           SKY/WX    TMP DP  RH WIND       PRES   REMARKS
EPHRATA        MOCLDY    66  45  46 NW10      29.79F
MOSES LAKE     MOCLDY    66  48  52 VRB7      29.80R
PASCO          MOCLDY    62  56  80 E5        29.80R
HERMISTON, OR  MOCLDY    60  54  80 SE5       29.81S
$$

WAZ036>038-221200-
NORTHEAST WASHINGTON

CITY           SKY/WX    TMP DP  RH WIND       PRES   REMARKS
SPOKANE GEIGER MOCLDY    60  49  66 SE5       29.85R
SPOKANE FELTS  PTCLDY    59  52  77 NE5       29.84S
FAIRCHILD AFB  CLOUDY    57  51  80 E3        29.85R
COEURDALENE,ID PTCLDY    57  48  72 SE7       29.85R
DEER PARK      PTCLDY    53  48  83 CALM      29.85S
$$

WAZ029>033-221200-
SOUTHEAST WASHINGTON

CITY           SKY/WX    TMP DP  RH WIND       PRES   REMARKS
PULLMAN        CLEAR     53  50  89 CALM      29.88R
LEWISTON, ID   PTCLDY    58  52  80 CALM      29.84R
WALLA WALLA    CLOUDY    64  54  69 S6        29.83S
PENDLETON, OR  CLOUDY    59  51  75 S6        29.83F
$$



USA.gov is the U.S. government's official web portal to all federal, state and local government web resources and services.